Regional Weather Roundup
Issued by NWS

Home | Current Version | Previous Version | Graphics & Text | Print | Product List | Glossary On
Versions: 1 2 3 4 5 6 7 8 9 10 11 12 13 14 15 16 17 18 19 20 21 22 23 24 25 26 27 28 29 30 31 32 33 34 35 36 37 38 39 40 41 42 43 44 45 46 47 48 49 50
083
ASUS43 KBIS 181510
RWRND

NORTH DAKOTA REGIONAL WEATHER ROUNDUP
NATIONAL WEATHER SERVICE BISMARCK ND
900 AM CST WED JAN 18 2017

NOTE: "FAIR" INDICATES FEW OR NO CLOUDS BELOW 12,000 FEET WITH NO
SIGNIFICANT WEATHER AND/OR OBSTRUCTIONS TO VISIBILITY.


NDZ001>003-009>011-017-181600-
NORTHWEST NORTH DAKOTA

CITY           SKY/WX    TMP DP  RH WIND       PRES   REMARKS
WILLISTON      FAIR      25  20  81 S7        29.66F WCI  17
MINOT          FAIR      34  26  72 SW16      29.65F
$$

NDZ018>021-031>035-040>046-181600-
SOUTHWEST NORTH DAKOTA

CITY           SKY/WX    TMP DP  RH WIND       PRES   REMARKS
BISMARCK       FAIR      16  11  80 E5        29.76S WCI   9
DICKINSON      FAIR      32  21  64 SW8       29.69F
GARRISON         N/A     23  18  81 S5        29.70F WCI  17
HETTINGER ARPT CLOUDY    21  15  78 CALM      29.76F
$$

NDZ004>008-012>016-024-026-027-054-181600-
NORTHEAST NORTH DAKOTA

CITY           SKY/WX    TMP DP  RH WIND       PRES   REMARKS
GRAND FORKS    CLOUDY    21  16  81 S10       29.71S WCI  10
GRND FRKS AFB  CLOUDY    25  19  77 S8        29.71R WCI  16
DEVILS LAKE    FAIR      24  21  88 SW5       29.69R WCI  18
$$

NDZ022-023-025-028>030-036>039-047>053-181600-
SOUTHEAST NORTH DAKOTA

CITY           SKY/WX    TMP DP  RH WIND       PRES   REMARKS
FARGO          CLOUDY    20  15  81 S10       29.77F WCI   9
JAMESTOWN      FAIR      29  21  72 W10       29.73R WCI  20
$$





USA.gov is the U.S. government's official web portal to all federal, state and local government web resources and services.